Weather History for Raleigh-Durham Airport, NC

Change the Weather History Date:

Tuesday, November 15, 2011

  Actual Average Record
Temperature  
Mean Temperature 70 °F 52 °F  
Max Temperature 78 °F 64 °F 86 °F (1993)
Min Temperature 62 °F 41 °F 21 °F (1969)
Degree Days  
Heating Degree Days 0 13  
Month to date heating degree days 179 164  
Since 1 July heating degree days 392 353  
Cooling Degree Days 5 0  
Month to date cooling degree days 6 1  
Year to date cooling degree days 2117 1721  
Growing Degree Days 20 (Base 50)    
Moisture  
Dew Point 55 °F    
Average Humidity 59    
Maximum Humidity 78    
Minimum Humidity 40    
Precipitation  
Precipitation 0.00 in 0.10 in 1.62 in (1914)
Month to date precipitation 1.61 1.57  
Year to date precipitation 39.94 38.72  
Snow  
Snow 0.00 in 0.00 in 0.00 in ()
Month to date snowfall 0.0 0.0  
Since 1 July snowfall 0.0 0.0  
Since 1 September snowfall 0.0 0.0  
Snow Depth 0.00 in    
Sea Level Pressure  
Sea Level Pressure 29.98 in    
Wind  
Wind Speed 11 mph (SW)    
Max Wind Speed 21 mph    
Max Gust Speed 26 mph    
Visibility 10 miles    
Events      
T = Trace of Precipitation, MM = Missing Value Source: NWS Daily Summary

Daily Weather History Graph

Daily Weather History Graph

Search for Another Location

Airport:

Trip Planner

Search our weather history database for the weather conditions in past years. The results will help you decide how hot, cold, wet, or windy it might be!

Date:

Astronomy

Nov. 15, 2011 Rise Set
Actual Time 6:51 AM EST 5:07 PM EST
Civil Twilight 6:23 AM EST 5:35 PM EST
Nautical Twilight 5:52 AM EST 6:06 PM EST
Astronomical Twilight 5:22 AM EST 6:36 PM EST
Moon 9:15 PM EST (11/15) 10:48 AM EST (11/15)
Length of Visible Light 11h 11m
Length of Day
10h 16m
Waning Gibbous, 79% of the Moon is Illuminated
Nov 15
Waning Gibbous
Nov 18
Last Quarter
Nov 25
New
Dec 2
First Quarter
Dec 10
Full

Hourly Weather History & Observations

Time (EST) Temp. Dew Point Humidity Pressure Visibility Wind Dir Wind Speed Gust Speed Precip Events Conditions
12:51 AM 63.0 °F 53.1 °F 70% 30.01 in 10.0 mi SW 11.5 mph - N/A   Overcast
1:51 AM 64.0 °F 53.1 °F 67% 30.00 in 10.0 mi SW 10.4 mph - N/A   Overcast
2:51 AM 64.4 °F 51.8 °F 64% 30.01 in 10.0 mi SW 9.2 mph - N/A   Overcast
3:51 AM 63.0 °F 52.0 °F 67% 29.99 in 10.0 mi SW 8.1 mph - N/A   Overcast
4:51 AM 63.0 °F 53.1 °F 70% 29.99 in 10.0 mi SSW 10.4 mph - N/A   Overcast
5:51 AM 63.0 °F 54.0 °F 72% 29.99 in 10.0 mi SW 11.5 mph - N/A   Overcast
6:51 AM 63.0 °F 54.0 °F 72% 29.99 in 10.0 mi SSW 10.4 mph - N/A   Mostly Cloudy
7:51 AM 62.6 °F 55.4 °F 77% 30.01 in 10.0 mi SSW 8.1 mph - N/A   Mostly Cloudy
8:51 AM 66.0 °F 57.0 °F 73% 30.01 in 10.0 mi SW 8.1 mph - N/A   Mostly Cloudy
9:51 AM 69.1 °F 57.0 °F 65% 30.00 in 10.0 mi SW 12.7 mph - N/A   Overcast
10:51 AM 73.0 °F 55.9 °F 55% 30.00 in 10.0 mi WSW 13.8 mph 17.3 mph N/A   Overcast
11:51 AM 73.9 °F 54.0 °F 50% 29.97 in 10.0 mi WSW 13.8 mph - N/A   Overcast
12:51 PM 78.1 °F 54.0 °F 43% 29.95 in 10.0 mi SW 16.1 mph - N/A   Overcast
1:51 PM 77.0 °F 52.0 °F 42% 29.94 in 10.0 mi SW 17.3 mph 25.3 mph N/A   Mostly Cloudy
2:51 PM 78.1 °F 54.0 °F 43% 29.93 in 10.0 mi SW 15.0 mph - N/A   Overcast
3:51 PM 75.9 °F 53.1 °F 45% 29.93 in 10.0 mi SW 15.0 mph 21.9 mph N/A   Overcast
4:51 PM 71.1 °F 54.0 °F 55% 29.95 in 10.0 mi SW 6.9 mph - N/A   Overcast
5:51 PM 71.1 °F 54.0 °F 55% 29.95 in 10.0 mi South 3.5 mph - N/A   Overcast
6:51 PM 70.0 °F 55.9 °F 61% 29.97 in 10.0 mi South 5.8 mph - N/A   Overcast
7:51 PM 69.1 °F 59.0 °F 70% 29.98 in 10.0 mi South 6.9 mph - N/A   Overcast
8:51 PM 69.1 °F 61.0 °F 75% 29.98 in 10.0 mi SSW 9.2 mph - N/A   Overcast
9:51 PM 69.1 °F 61.0 °F 75% 29.98 in 10.0 mi SSW 9.2 mph - N/A   Overcast
10:51 PM 68.0 °F 61.0 °F 78% 29.96 in 10.0 mi SSW 10.4 mph - N/A   Mostly Cloudy
11:51 PM 68.0 °F 61.0 °F 78% 29.96 in 10.0 mi SW 9.2 mph - N/A   Mostly Cloudy